DJI430 HDAM-HADR

Flight info

Callsign DJI430
Flight time N/A
Altitude 18000
Route ASTAR1
Aircraft DC6/M-SDE1FGHIRWXY/S

Departure

Time 2026-05-09 13:41
Airport Djibouti-Ambouli Airport (HDAM)

Arrival

Time N/A
Airport Aba Tenna Dejazmach Yilma International Airport (HADR)
Time Latitude Longitude Altitude Speed Heading
2026-05-09 13:39 11.54752 43.14693 62 ft 0 kts 89°
2026-05-09 13:40 11.54752 43.14701 63 ft 10 kts 89°
2026-05-09 13:40 11.54759 43.15017 63 ft 82 kts 90°
2026-05-09 13:40 11.54739 43.15784 135 ft 126 kts 90°
2026-05-09 13:40 11.54668 43.16770 324 ft 147 kts 94°
2026-05-09 13:41 11.54435 43.17775 777 ft 153 kts 103°
2026-05-09 13:41 11.54118 43.18865 1031 ft 163 kts 104°
2026-05-09 13:41 11.53963 43.20088 917 ft 183 kts 76°
2026-05-09 13:41 11.54428 43.21292 1104 ft 184 kts 56°
2026-05-09 13:42 11.55477 43.21981 1280 ft 177 kts 25°
2026-05-09 13:42 11.56595 43.22418 1522 ft 169 kts 15°
2026-05-09 13:42 11.57730 43.22221 1714 ft 167 kts 342°
2026-05-09 13:42 11.58798 43.21826 1916 ft 159 kts 344°
2026-05-09 13:43 11.59811 43.21446 2088 ft 151 kts 343°
2026-05-09 13:43 11.60763 43.21079 2273 ft 145 kts 338°
2026-05-09 13:43 11.61572 43.20506 2456 ft 139 kts 324°
2026-05-09 13:43 11.62324 43.19888 2650 ft 140 kts 323°
2026-05-09 13:44 11.63083 43.19247 2839 ft 143 kts 322°
2026-05-09 13:44 11.63744 43.18486 3015 ft 144 kts 306°
2026-05-09 13:44 11.64296 43.17624 3227 ft 146 kts 304°
2026-05-09 13:44 11.64836 43.16742 3406 ft 147 kts 303°
2026-05-09 13:45 11.65368 43.15849 3608 ft 147 kts 300°
2026-05-09 13:45 11.65517 43.14838 3789 ft 146 kts 269°
2026-05-09 13:45 11.65517 43.13802 3987 ft 146 kts 272°
2026-05-09 13:45 11.65541 43.12760 4169 ft 147 kts 272°
2026-05-09 13:46 11.65569 43.11716 4381 ft 148 kts 272°
2026-05-09 13:46 11.65598 43.10669 4571 ft 148 kts 272°
2026-05-09 13:46 11.65627 43.09620 4763 ft 148 kts 272°
2026-05-09 13:46 11.65651 43.08574 4962 ft 147 kts 272°
2026-05-09 13:47 11.65671 43.07530 5144 ft 147 kts 272°
2026-05-09 13:47 11.65685 43.06491 5334 ft 146 kts 272°
2026-05-09 13:47 11.65693 43.05459 5523 ft 145 kts 273°
2026-05-09 13:47 11.65649 43.04438 5714 ft 144 kts 256°
2026-05-09 13:48 11.64961 43.03718 5910 ft 146 kts 216°
2026-05-09 13:48 11.64099 43.03171 6079 ft 147 kts 214°
2026-05-09 13:48 11.63205 43.02640 6226 ft 150 kts 214°
2026-05-09 13:48 11.62285 43.02117 6368 ft 153 kts 213°
2026-05-09 13:49 11.61350 43.01590 6502 ft 154 kts 212°
2026-05-09 13:49 11.60406 43.01055 6637 ft 155 kts 213°
2026-05-09 13:49 11.59483 43.00479 6773 ft 156 kts 216°
2026-05-09 13:49 11.58589 42.99878 6927 ft 156 kts 216°
2026-05-09 13:50 11.57697 42.99260 7074 ft 146 kts 217°
2026-05-09 13:50 11.56950 42.98740 7186 ft 114 kts 217°
2026-05-09 13:50 11.56323 42.98302 7001 ft 115 kts 217°
2026-05-09 13:50 11.55645 42.97834 6853 ft 111 kts 218°
2026-05-09 13:51 11.55008 42.97401 6619 ft 116 kts 217°
2026-05-09 13:51 11.54342 42.96952 6480 ft 108 kts 217°
2026-05-09 13:51 11.53699 42.96522 6229 ft 114 kts 217°
2026-05-09 13:51 11.53048 42.96095 6076 ft 108 kts 217°
2026-05-09 13:52 11.52395 42.95664 5812 ft 113 kts 218°
2026-05-09 13:52 11.51750 42.95233 5657 ft 109 kts 217°
2026-05-09 13:52 11.51110 42.94798 5428 ft 112 kts 217°
2026-05-09 13:52 11.50476 42.94362 5272 ft 109 kts 216°
2026-05-09 13:53 11.50058 42.94068 5152 ft 110 kts 217°
2026-05-09 13:53 11.49435 42.93625 4987 ft 109 kts 217°
2026-05-09 13:53 11.48818 42.93178 4804 ft 109 kts 217°
2026-05-09 13:53 11.48010 42.92580 4556 ft 108 kts 217°
2026-05-09 13:54 11.47597 42.92271 4418 ft 109 kts 217°
2026-05-09 13:54 11.46997 42.91812 4207 ft 109 kts 217°
2026-05-09 13:54 11.46381 42.91338 3984 ft 111 kts 217°
2026-05-09 13:54 11.45764 42.90866 3777 ft 114 kts 216°
2026-05-09 13:55 11.45145 42.90370 3562 ft 114 kts 217°
2026-05-09 13:55 11.44523 42.89870 3328 ft 116 kts 216°
2026-05-09 13:55 11.43902 42.89357 3149 ft 115 kts 217°
2026-05-09 13:55 11.43250 42.88828 2855 ft 124 kts 216°
2026-05-09 13:56 11.42644 42.88316 2826 ft 107 kts 218°
2026-05-09 13:56 11.42027 42.87795 2425 ft 123 kts 217°
2026-05-09 13:56 11.41391 42.87255 2312 ft 112 kts 216°
2026-05-09 13:56 11.40812 42.86778 2237 ft 93 kts 216°
2026-05-09 13:57 11.40686 42.86677 2227 ft 0 kts 218°
2026-05-09 13:59 11.40686 42.86676 2227 ft 0 kts 219°